TimeCDT,TemperatureF,Dew PointF,Humidity,Sea Level PressureIn,VisibilityMPH,Wind Direction,Wind SpeedMPH,Gust SpeedMPH,PrecipitationIn,Events,Conditions,WindDirDegrees,DateUTC
12:15 AM,62.6,50.0,63,29.90,10.0,NNW,5.8,-,N/A,,Clear,340,2011-10-13 05:15:00
12:35 AM,62.6,50.0,63,29.91,10.0,NNW,6.9,-,N/A,,Clear,330,2011-10-13 05:35:00
12:55 AM,60.8,50.0,68,29.91,10.0,NNW,6.9,-,N/A,,Clear,330,2011-10-13 05:55:00
1:15 AM,62.6,50.0,63,29.91,10.0,NW,9.2,-,N/A,,Clear,320,2011-10-13 06:15:00
1:35 AM,60.8,50.0,68,29.91,10.0,NNW,5.8,-,N/A,,Clear,330,2011-10-13 06:35:00
1:55 AM,60.8,50.0,68,29.91,10.0,NNW,8.1,-,N/A,,Clear,330,2011-10-13 06:55:00
2:15 AM,60.8,50.0,68,29.91,10.0,NNW,5.8,-,N/A,,Clear,330,2011-10-13 07:15:00
2:35 AM,60.8,48.2,63,29.91,10.0,NNW,4.6,-,N/A,,Clear,340,2011-10-13 07:35:00
2:55 AM,59.0,48.2,67,29.92,10.0,NNW,5.8,-,N/A,,Clear,330,2011-10-13 07:55:00
3:15 AM,59.0,48.2,67,29.92,10.0,NNW,4.6,-,N/A,,Clear,340,2011-10-13 08:15:00
3:35 AM,55.4,48.2,77,29.92,10.0,NW,5.8,-,N/A,,Clear,320,2011-10-13 08:35:00
3:55 AM,55.4,46.4,72,29.93,10.0,NW,5.8,-,N/A,,Clear,320,2011-10-13 08:55:00
4:15 AM,55.4,46.4,72,29.94,10.0,NNW,6.9,-,N/A,,Clear,330,2011-10-13 09:15:00
4:35 AM,55.4,46.4,72,29.94,10.0,NNW,6.9,-,N/A,,Clear,330,2011-10-13 09:35:00
4:55 AM,55.4,44.6,67,29.94,10.0,NNW,6.9,-,N/A,,Clear,330,2011-10-13 09:55:00
5:15 AM,55.4,44.6,67,29.94,10.0,NNW,6.9,-,N/A,,Clear,330,2011-10-13 10:15:00
5:35 AM,55.4,44.6,67,29.95,10.0,NW,5.8,-,N/A,,Clear,320,2011-10-13 10:35:00
5:55 AM,53.6,44.6,72,29.96,10.0,NNW,4.6,-,N/A,,Clear,330,2011-10-13 10:55:00
6:15 AM,53.6,42.8,67,29.96,10.0,NW,3.5,-,N/A,,Clear,310,2011-10-13 11:15:00
6:35 AM,53.6,42.8,67,29.96,10.0,NW,4.6,-,N/A,,Clear,320,2011-10-13 11:35:00
6:55 AM,53.6,42.8,67,29.96,10.0,NW,3.5,-,N/A,,Clear,320,2011-10-13 11:55:00
7:55 AM,53.6,42.8,67,29.97,10.0,NW,5.8,-,N/A,,Clear,320,2011-10-13 12:55:00
8:55 AM,57.2,44.6,63,29.98,10.0,NNW,9.2,-,N/A,,Clear,330,2011-10-13 13:55:00
9:55 AM,62.6,44.6,52,30.00,10.0,NNW,10.4,-,N/A,,Clear,330,2011-10-13 14:55:00
10:55 AM,68.0,44.6,43,30.01,10.0,NNW,10.4,-,N/A,,Clear,340,2011-10-13 15:55:00
11:55 AM,71.6,44.6,38,30.00,10.0,NNW,11.5,-,N/A,,Clear,330,2011-10-13 16:55:00
12:55 PM,75.2,42.8,31,29.99,10.0,NNW,11.5,-,N/A,,Clear,330,2011-10-13 17:55:00
3:55 PM,78.8,41.0,26,29.92,10.0,NW,13.8,19.6,N/A,,Clear,320,2011-10-13 20:55:00
4:55 PM,78.8,39.2,24,29.90,10.0,NNW,8.1,-,N/A,,Clear,330,2011-10-13 21:55:00
6:55 PM,77.0,39.2,26,29.90,10.0,NNW,3.5,-,N/A,,Clear,330,2011-10-13 23:55:00
7:50 PM,60.8,46.4,59,29.91,10.0,Calm,Calm,-,N/A,,Clear,0,2011-10-14 00:50:00
9:55 PM,55.4,50.0,82,29.94,10.0,Calm,Calm,-,N/A,,Clear,0,2011-10-14 02:55:00
10:15 PM,55.4,48.2,77,29.95,10.0,Calm,Calm,-,N/A,,Clear,0,2011-10-14 03:15:00
10:55 PM,51.8,46.4,82,29.96,10.0,Calm,Calm,-,N/A,,Clear,0,2011-10-14 03:55:00
11:15 PM,51.8,48.2,88,29.96,10.0,Calm,Calm,-,N/A,,Clear,0,2011-10-14 04:15:00
11:35 PM,51.8,46.4,82,29.95,10.0,Calm,Calm,-,N/A,,Clear,0,2011-10-14 04:35:00
11:55 PM,51.8,48.2,88,29.95,10.0,Calm,Calm,-,N/A,,Clear,0,2011-10-14 04:55:00